Weather History for Monroe, MI

Change the Weather History Date:

Thursday, July 19, 2012

  Actual Average Record
Temperature  
Mean Temperature 75 °F -  
Max Temperature 82 °F 85 °F 100 °F (1932)
Min Temperature 68 °F 66 °F 53 °F (1984)
Cooling Degree Days 10    
Growing Degree Days 25 (Base 50)    
Moisture  
Dew Point 72 °F    
Average Humidity 94    
Maximum Humidity 100    
Minimum Humidity 70    
Precipitation  
Precipitation 0.00 in - - ()
Sea Level Pressure  
Sea Level Pressure 29.92 in    
Wind  
Wind Speed 3 mph (NE)    
Max Wind Speed 16 mph    
Max Gust Speed 22 mph    
Visibility 9 miles    
Events Rain    
Averages and records for this station are not official NWS values.
T = Trace of Precipitation, MM = Missing Value Source: NWS Daily Summary

Daily Weather History Graph

Daily Weather History Graph

Search for Another Location

Airport:

Trip Planner

Search our weather history database for the weather conditions in past years. The results will help you decide how hot, cold, wet, or windy it might be!

Date:

Astronomy

Jul. 19, 2012 Rise Set
Actual Time 6:15 AM EDT 9:04 PM EDT
Civil Twilight 5:42 AM EDT 9:36 PM EDT
Nautical Twilight 5:01 AM EDT 10:18 PM EDT
Astronomical Twilight 4:13 AM EDT 11:05 PM EDT
Moon 6:50 AM EDT 9:07 PM EDT
Length of Visible Light 15h 54m
Length of Day
14h 48m
New Moon, 0% of the Moon is Illuminated
Jul 19
New Moon
Jul 26
First Quarter
Aug 1
Full
Aug 9
Last Quarter
Aug 17
New

Hourly Weather History & Observations

Time (EDT) Temp. Heat Index Dew Point Humidity Pressure Visibility Wind Dir Wind Speed Gust Speed Precip Events Conditions
12:16 AM 73.4 °F - 73.4 °F 100% 29.96 in 5.0 mi Calm Calm - N/A   Clear
12:36 AM 73.4 °F - 73.4 °F 100% 29.96 in 7.0 mi Calm Calm - N/A   Mostly Cloudy
12:51 AM 73.4 °F - 73.4 °F 100% 29.95 in 7.0 mi ENE 3.5 mph - N/A   Overcast
1:11 AM 75.2 °F - 75.2 °F 100% 29.94 in 7.0 mi East 5.8 mph - N/A   Mostly Cloudy
1:31 AM 75.2 °F - 75.2 °F 100% 29.94 in 7.0 mi East 5.8 mph - N/A   Scattered Clouds
1:52 AM 73.4 °F - 73.4 °F 100% 29.93 in 10.0 mi NE 4.6 mph - N/A   Clear
2:12 AM 73.4 °F - 73.4 °F 100% 29.94 in 10.0 mi NE 3.5 mph - N/A   Clear
2:32 AM 73.4 °F - 71.6 °F 94% 29.95 in 10.0 mi Calm Calm - N/A   Scattered Clouds
2:52 AM 73.4 °F - 71.6 °F 94% 29.94 in 10.0 mi Calm Calm - N/A   Mostly Cloudy
3:12 AM 73.4 °F - 73.4 °F 100% 29.93 in 10.0 mi Calm Calm - N/A   Overcast
3:32 AM 73.4 °F - 71.6 °F 94% 29.93 in 10.0 mi Calm Calm - N/A   Overcast
3:52 AM 73.4 °F - 71.6 °F 94% 29.94 in 10.0 mi Calm Calm - N/A   Overcast
4:12 AM 73.4 °F - 71.6 °F 94% 29.93 in 10.0 mi Calm Calm - N/A   Mostly Cloudy
4:32 AM 73.4 °F - 71.6 °F 94% 29.93 in 10.0 mi Calm Calm - N/A   Mostly Cloudy
4:53 AM 71.6 °F - 71.6 °F 100% 29.92 in 10.0 mi ENE 3.5 mph - N/A   Mostly Cloudy
5:13 AM 71.6 °F - 71.6 °F 100% 29.92 in 10.0 mi Calm Calm - N/A   Scattered Clouds
5:33 AM 71.6 °F - 71.6 °F 100% 29.92 in 10.0 mi Calm Calm - N/A   Mostly Cloudy
5:53 AM 73.4 °F - 71.6 °F 94% 29.92 in 10.0 mi Calm Calm - N/A   Overcast
6:13 AM 71.6 °F - 71.6 °F 100% 29.91 in 10.0 mi Calm Calm - N/A   Overcast
6:33 AM 73.4 °F - 71.6 °F 94% 29.90 in 10.0 mi NE 4.6 mph - N/A   Mostly Cloudy
6:53 AM 73.4 °F - 71.6 °F 94% 29.90 in 10.0 mi Calm Calm - N/A   Mostly Cloudy
7:13 AM 73.4 °F - 73.4 °F 100% 29.91 in 10.0 mi Calm Calm - N/A   Scattered Clouds
7:34 AM 73.4 °F - 73.4 °F 100% 29.92 in 10.0 mi Calm Calm - N/A   Scattered Clouds
7:54 AM 73.4 °F - 73.4 °F 100% 29.93 in 10.0 mi Calm Calm - N/A   Scattered Clouds
8:14 AM 73.4 °F - 73.4 °F 100% 29.92 in 10.0 mi Calm Calm - N/A   Clear
8:34 AM 73.4 °F - 73.4 °F 100% 29.94 in 10.0 mi Calm Calm - N/A   Light Drizzle
8:54 AM 73.4 °F - 73.4 °F 100% 29.94 in 7.0 mi Calm Calm - N/A Rain Light Rain
9:14 AM 73.4 °F - 73.4 °F 100% 29.94 in 7.0 mi WNW 3.5 mph - N/A Rain Light Rain
9:34 AM 73.4 °F - 73.4 °F 100% 29.94 in 5.0 mi Calm Calm - N/A Rain Rain
9:54 AM 73.4 °F - 73.4 °F 100% 29.93 in 5.0 mi Calm Calm - N/A Rain Light Rain
10:14 AM 73.4 °F - 73.4 °F 100% 29.92 in 5.0 mi Calm Calm - N/A Rain Light Rain
10:35 AM 73.4 °F - 73.4 °F 100% 29.92 in 5.0 mi Calm Calm - N/A Rain Light Rain
10:55 AM 75.2 °F - 75.2 °F 100% 29.93 in 7.0 mi WNW 8.1 mph - N/A   Scattered Clouds
11:20 AM 75.2 °F - 75.2 °F 100% 29.93 in 7.0 mi WNW 6.9 mph - N/A   Scattered Clouds
11:35 AM 75.2 °F - 75.2 °F 100% 29.93 in 7.0 mi NNW 4.6 mph - N/A   Scattered Clouds
11:55 AM 75.2 °F - 75.2 °F 100% 29.93 in 7.0 mi NW 4.6 mph - N/A   Scattered Clouds
12:15 PM 77.0 °F - 75.2 °F 94% 29.93 in 7.0 mi North 5.8 mph - N/A   Scattered Clouds
12:35 PM 77.0 °F - 75.2 °F 94% 29.94 in 10.0 mi West 4.6 mph - N/A   Mostly Cloudy
12:55 PM 78.8 °F - 75.2 °F 89% 29.94 in 10.0 mi Calm Calm - N/A   Mostly Cloudy
1:16 PM 78.8 °F - 73.4 °F 83% 29.93 in 10.0 mi Calm Calm - N/A   Mostly Cloudy
1:36 PM 80.6 °F 85.4 °F 73.4 °F 79% 29.92 in 10.0 mi Calm Calm - N/A   Scattered Clouds
1:56 PM 80.6 °F 84.6 °F 71.6 °F 74% 29.91 in 10.0 mi Calm Calm - N/A   Mostly Cloudy
2:16 PM 80.6 °F 84.6 °F 71.6 °F 74% 29.90 in 10.0 mi NNE 3.5 mph - N/A   Overcast
2:36 PM 82.4 °F 88.2 °F 73.4 °F 74% 29.89 in 10.0 mi North 5.8 mph - N/A   Mostly Cloudy
2:56 PM 82.4 °F 88.2 °F 73.4 °F 74% 29.89 in 7.0 mi North 3.5 mph - N/A   Scattered Clouds
3:11 PM 80.6 °F 84.6 °F 71.6 °F 74% 29.89 in 10.0 mi NE 4.6 mph - N/A   Mostly Cloudy
3:31 PM 82.4 °F 87.2 °F 71.6 °F 70% 29.88 in 10.0 mi WNW 4.6 mph - N/A   Scattered Clouds
3:51 PM 80.6 °F 84.6 °F 71.6 °F 74% 29.89 in 10.0 mi ENE 5.8 mph - N/A   Mostly Cloudy
4:12 PM 80.6 °F 84.6 °F 71.6 °F 74% 29.89 in 10.0 mi NNE 6.9 mph - N/A   Overcast
4:32 PM 78.8 °F - 73.4 °F 83% 29.89 in 7.0 mi NNE 10.4 mph - N/A   Mostly Cloudy
4:52 PM 77.0 °F - 71.6 °F 83% 29.89 in 5.0 mi NE 11.5 mph - N/A   Haze
5:12 PM 77.0 °F - 71.6 °F 83% 29.89 in 7.0 mi NE 9.2 mph - N/A   Overcast
5:32 PM 75.2 °F - 71.6 °F 89% 29.89 in 10.0 mi NNE 8.1 mph - N/A   Overcast
5:52 PM 75.2 °F - 71.6 °F 89% 29.89 in 10.0 mi NNE 10.4 mph 16.1 mph N/A   Overcast
6:12 PM 75.2 °F - 71.6 °F 89% 29.89 in 10.0 mi NE 6.9 mph - N/A   Overcast
6:32 PM 75.2 °F - 71.6 °F 89% 29.90 in 10.0 mi NE 10.4 mph - N/A   Overcast
6:53 PM 73.4 °F - 71.6 °F 94% 29.90 in 10.0 mi NE 12.7 mph 18.4 mph N/A   Overcast
7:13 PM 73.4 °F - 71.6 °F 94% 29.91 in 7.0 mi ENE 10.4 mph 17.3 mph N/A   Overcast
7:33 PM 73.4 °F - 71.6 °F 94% 29.91 in 7.0 mi NE 11.5 mph 17.3 mph N/A   Overcast
7:53 PM 73.4 °F - 71.6 °F 94% 29.91 in 10.0 mi ENE 9.2 mph - N/A   Overcast
8:13 PM 73.4 °F - 71.6 °F 94% 29.90 in 10.0 mi ENE 11.5 mph 19.6 mph N/A   Overcast
8:33 PM 73.4 °F - 71.6 °F 94% 29.90 in 10.0 mi NE 13.8 mph 19.6 mph N/A   Overcast
8:53 PM 73.4 °F - 71.6 °F 94% 29.91 in 10.0 mi NE 13.8 mph 17.3 mph N/A   Overcast
9:13 PM 71.6 °F - 71.6 °F 100% 29.91 in 10.0 mi ENE 9.2 mph 21.9 mph N/A   Overcast
9:33 PM 71.6 °F - 71.6 °F 100% 29.91 in 10.0 mi ENE 16.1 mph 21.9 mph N/A Rain Rain
9:54 PM 69.8 °F - 69.8 °F 100% 29.92 in 10.0 mi ENE 10.4 mph 19.6 mph N/A   Overcast
10:14 PM 69.8 °F - 69.8 °F 100% 29.94 in 10.0 mi NE 12.7 mph 20.7 mph N/A   Overcast
10:34 PM 69.8 °F - 69.8 °F 100% 29.94 in 10.0 mi NE 12.7 mph 17.3 mph N/A   Overcast
10:54 PM 68.0 °F - 68.0 °F 100% 29.94 in 10.0 mi NE 10.4 mph 20.7 mph N/A   Overcast
11:14 PM 68.0 °F - 68.0 °F 100% 29.95 in 10.0 mi NE 10.4 mph 20.7 mph N/A   Overcast
11:34 PM 68.0 °F - 68.0 °F 100% 29.94 in 10.0 mi NE 9.2 mph 18.4 mph N/A   Overcast
11:54 PM 68.0 °F - 68.0 °F 100% 29.94 in 10.0 mi NE 9.2 mph - N/A   Overcast